{"data":{"norad_id":37791,"intl_designator":"2011-044D","name":"RASAT","alt_names":[],"object_type":"PAYLOAD","status":"ACTIVE","operator":null,"country":"TURK","launch_date":"2011-08-17","launch_site_code":"DLS","launch_vehicle":null,"mission":null,"orbit_class":"UNKNOWN","rcs_meters":0.581,"size_class":null,"mass_kg":null,"dimensions":null,"purposes":["earth_obs"],"wikipedia_slug":null,"has_3d_model":false,"image_url":null,"decayed_at":null,"tle_current":{"epoch":"2026-09-20T05:56:40.710624Z","epoch_age_seconds":36541,"freshness":"FRESH","line1":"1 37791U 11044D   26263.24769341  .00000427  00000+0  82463-4 0  9991","line2":"2 37791  98.0554 353.1872 0019183 250.0046 167.8191 14.68240347807139","mean_motion":14.68240347,"eccentricity":0.0019183,"inclination_deg":98.0554,"raan_deg":353.1872,"arg_perigee_deg":250.0046,"mean_anomaly_deg":167.8191,"bstar":8.2463e-5,"rev_number":80713,"period_min":98.076585549655,"perigee_km":653.17708325472,"apogee_km":680.20527103916,"semimajor_km":7044.8281771469,"source":"CELESTRAK","updated_at":"2026-09-20T09:00:33.892207Z"}}}